[[{"header":{"parameterUnit":"m.s-1","parameterCategory":2,"la1":30.2991,"la2":30.254,"lo1":-89.0895,"lo2":-89.0444,"dy":0.0017,"dx":0.0017,"nx":28,"ny":28,"refTime":"2025-01-08T09:00:00:Z","depth":"0","parameterNumber":2,"parameterNumberName":"U-component_of_CURRENTS"},"data":[0,0,0,0,0,0,0,0,0,0,0,0,0,0,0,0,0,0,0,0,0,0,0,0,0,0,0,0,0,0,0,0,0,0,0,0,0,0,0,0,0,0,0,0,0,0,0,0,0,0,0,0,0,0,0,0,0,0,-0.2644,-0.2645,0,-0.2697,-0.2698,-0.2698,-0.267,-0.2669,-0.2669,-0.2668,-0.2548,-0.2545,-0.2543,0,0,0,0,0,0,0,0,0,0,0,0,0,-0.2552,-0.2553,-0.2644,-0.2645,-0.2646,-0.2697,-0.2698,-0.2698,-0.267,-0.2669,-0.2668,-0.2667,-0.2548,-0.2545,-0.2543,0,0,0,0,0,0,0,0,0,0,0,0,0,-0.2591,-0.2554,-0.2643,-0.2643,-0.2644,-0.2697,-0.2698,-0.2698,-0.2671,-0.2669,-0.2668,-0.2667,-0.2549,-0.2546,-0.2542,-0.2545,0,0,-0.2531,-0.2529,0,0,0,0,0,0,0,0,-0.2589,-0.2594,-0.2642,-0.2644,-0.2645,-0.2682,-0.2622,-0.264,-0.2671,-0.2654,-0.2668,-0.2666,-0.2581,-0.2575,-0.2581,-0.2539,-0.2534,-0.2531,-0.2529,-0.2527,-0.2526,0,0,0,0,0,0,0,-0.2586,-0.2592,-0.2658,-0.2644,-0.2646,-0.2653,-0.2656,-0.2626,-0.2616,-0.2655,-0.2655,-0.2672,-0.258,-0.2585,-0.2578,-0.2532,-0.2531,-0.2528,-0.2525,-0.2524,-0.2388,-0.2387,0,0,0,0,0,0,-0.2593,-0.2589,-0.2657,-0.2661,-0.2621,-0.2656,-0.266,-0.2666,-0.262,-0.2615,-0.2673,-0.267,-0.2592,-0.2582,-0.2573,-0.2517,-0.2527,-0.2524,-0.2521,-0.239,-0.2388,-0.2387,0,0,0,0,0,0,-0.259,-0.2598,-0.2655,-0.2632,-0.264,-0.266,-0.2667,-0.2668,-0.2671,-0.2636,-0.2626,-0.2676,-0.259,-0.2578,-0.2529,-0.2514,-0.2522,-0.2519,-0.2391,-0.2389,-0.2387,-0.244,0,0,0,0,0,0,-0.2587,-0.2596,-0.2589,-0.2632,-0.2642,-0.2676,-0.2669,-0.267,-0.2687,-0.2684,-0.2635,-0.2624,-0.2589,-0.2534,-0.2525,-0.2509,-0.2516,-0.2393,-0.239,-0.2388,-0.244,-0.244,-0.244,0,0,0,0,0,-0.2583,-0.2579,-0.2588,-0.2596,-0.2635,-0.2677,-0.2682,-0.2687,-0.2688,-0.2686,-0.2647,-0.2625,-0.251,-0.2531,-0.252,-0.2503,-0.2395,-0.2391,-0.2388,-0.244,-0.244,-0.244,0,0,0,0,0,0,-0.2495,-0.2578,-0.2588,-0.2595,-0.2632,-0.2674,-0.2675,-0.2694,-0.2669,-0.2656,-0.2619,-0.2603,-0.2553,-0.2517,-0.2542,-0.2451,-0.2444,-0.2439,-0.2487,-0.2486,-0.2486,-0.2493,-0.2513,0,0,0,0,0,-0.2487,-0.2522,-0.2582,-0.2582,-0.2605,-0.2644,-0.2659,-0.2673,-0.2672,-0.2662,-0.2634,-0.2583,-0.2535,-0.2503,-0.2459,-0.2419,-0.2399,-0.2393,-0.2393,-0.2393,-0.2388,-0.2359,-0.2357,-0.2376,-0.2376,-0.2376,0,0,-0.2439,-0.25,-0.2506,-0.257,-0.2597,-0.2627,-0.2647,-0.2675,-0.2684,-0.2649,-0.2627,-0.2589,-0.2525,-0.2475,-0.2448,-0.2441,-0.2377,-0.2389,-0.2391,-0.2384,-0.2356,-0.2354,-0.2353,-0.2374,-0.2374,-0.2375,0,0,-0.2406,-0.2432,-0.2465,-0.251,-0.2579,-0.2606,-0.2619,-0.2667,-0.2667,-0.266,-0.2623,-0.2578,-0.252,-0.2468,-0.2434,-0.2404,-0.2384,-0.2384,-0.2385,-0.2358,-0.2357,-0.2356,-0.234,-0.2336,-0.2378,-0.2378,-0.2378,0,-0.234,-0.2402,-0.247,-0.2524,-0.2549,-0.2599,-0.2622,-0.2639,-0.2657,-0.2651,-0.2648,-0.2562,-0.2514,-0.2445,-0.2428,-0.2406,-0.2393,-0.24,-0.2362,-0.236,-0.2359,-0.2341,-0.2338,-0.238,-0.238,-0.2379,-0.2379,0,-0.2346,-0.2395,-0.2415,-0.2503,-0.2533,-0.2559,-0.261,-0.2621,-0.2633,-0.2648,-0.2605,-0.2552,-0.2495,-0.2472,-0.2441,-0.2391,-0.2388,-0.2378,-0.2375,-0.2361,-0.2342,-0.2338,-0.2383,-0.2382,-0.2382,-0.2381,0,0,-0.2193,-0.2382,-0.2383,-0.2434,-0.2527,-0.2547,-0.257,-0.2597,-0.2599,-0.2605,-0.259,-0.2518,-0.2506,-0.2464,-0.2422,-0.2393,-0.2373,-0.2381,-0.2378,-0.2386,-0.2324,-0.2227,-0.2213,-0.2366,-0.2365,-0.2365,-0.2322,0,-0.2166,-0.2266,-0.2363,-0.2411,-0.2459,-0.2522,-0.2536,-0.2564,-0.2581,-0.2579,-0.2547,-0.2509,-0.2499,-0.2462,-0.2439,-0.2385,-0.236,-0.2386,-0.2316,-0.2313,-0.2248,-0.2203,-0.2083,-0.2025,-0.2317,-0.2316,-0.2316,0,-0.213,-0.2219,-0.2273,-0.2399,-0.2416,-0.2437,-0.2463,-0.2489,-0.2512,-0.2524,-0.251,-0.2499,-0.245,-0.2446,-0.2377,-0.2398,-0.2361,-0.2331,-0.2329,-0.2214,-0.2206,-0.208,-0.2005,-0.1987,-0.2308,-0.2308,-0.2309,0,-0.1998,-0.2145,-0.2184,-0.2223,-0.2358,-0.2368,-0.2412,-0.2453,-0.2455,-0.2481,-0.2469,-0.2458,-0.2408,-0.2392,-0.2339,-0.2358,-0.2271,-0.2288,-0.217,-0.2165,-0.2031,-0.2013,-0.1942,-0.2236,-0.2236,-0.2236,-0.2236,0,-0.1934,-0.1969,-0.213,-0.2149,-0.2165,-0.2288,-0.2281,-0.2331,-0.2372,-0.2353,-0.2417,-0.2373,-0.2388,-0.2348,-0.2334,-0.2226,-0.2266,-0.2153,-0.2134,-0.2044,-0.2028,-0.1981,-0.2015,-0.2234,-0.2235,-0.2235,-0.2235,0,-0.1792,-0.19,-0.1953,-0.2083,-0.211,-0.2111,-0.2197,-0.2196,-0.2262,-0.2236,-0.2235,-0.2279,-0.2236,-0.2247,-0.2199,-0.2169,-0.2059,-0.2064,-0.1961,-0.1928,-0.1794,-0.1836,-0.1742,-0.169,-0.193,-0.1927,-0.1924,0,-0.1744,-0.1759,-0.1857,-0.1864,-0.1921,-0.196,-0.1977,-0.2094,-0.2102,-0.2155,-0.2118,-0.2106,-0.2063,-0.1991,-0.1949,-0.1905,-0.1926,-0.1761,-0.1758,-0.1746,-0.178,-0.1824,-0.1792,-0.1617,-0.1612,-0.1608,-0.1605,0,-0.1643,-0.1657,-0.1695,-0.1706,-0.1726,-0.1754,-0.1805,-0.1799,-0.1916,-0.191,-0.1899,-0.1883,-0.1831,-0.173,-0.1683,-0.1648,-0.1703,-0.1676,-0.1682,-0.1529,-0.1552,-0.1506,-0.1714,-0.1571,-0.1574,-0.1577,-0.1578,-0.158,-0.1539,-0.1523,-0.1554,-0.1551,-0.1563,-0.1558,-0.154,-0.16,-0.1596,-0.1602,-0.1662,-0.1624,-0.157,-0.1481,-0.1434,-0.1326,-0.143,-0.1292,-0.1348,-0.1397,-0.1321,-0.145,-0.1271,-0.1272,-0.1274,-0.1275,-0.1276,0,-0.1438,-0.143,-0.1412,-0.1407,-0.1365,-0.1421,-0.1426,-0.14,-0.1364,-0.1394,-0.1382,-0.1348,-0.1227,-0.1208,-0.1111,-0.1039,-0.103,-0.1025,-0.1072,-0.1057,-0.1165,-0.1122,-0.0878,-0.0878,-0.0878,-0.0878,-0.0878,-0.0878,-0.1385,-0.1339,-0.1333,-0.1235,-0.1216,-0.1145,-0.1127,-0.1095,-0.1101,-0.1066,-0.1083,-0.113,-0.1138,-0.1137,-0.1003,-0.0926,-0.0929,-0.0872,-0.0941,-0.1041,-0.1071,-0.1101,-0.1066,-0.0814,-0.0814,-0.0761,-0.0761,-0.0761]},{"header":{"parameterUnit":"m.s-1","parameterCategory":2,"la1":30.2991,"la2":30.254,"lo1":-89.0895,"lo2":-89.0444,"dy":0.0017,"dx":0.0017,"nx":28,"ny":28,"refTime":"2025-01-08T09:00:00:Z","depth":"0","parameterNumber":3,"parameterNumberName":"V-component_of_CURRENTS"},"data":[0,0,0,0,0,0,0,0,0,0,0,0,0,0,0,0,0,0,0,0,0,0,0,0,0,0,0,0,0,0,0,0,0,0,0,0,0,0,0,0,0,0,0,0,0,0,0,0,0,0,0,0,0,0,0,0,0,0,-0.0575,-0.0574,0,-0.0544,-0.0544,-0.0543,-0.0511,-0.0511,-0.051,-0.051,-0.0399,-0.0397,-0.0394,0,0,0,0,0,0,0,0,0,0,0,0,0,-0.0609,-0.0609,-0.0575,-0.0574,-0.0574,-0.0544,-0.0544,-0.0543,-0.0511,-0.0511,-0.051,-0.051,-0.04,-0.0397,-0.0394,0,0,0,0,0,0,0,0,0,0,0,0,0,-0.0588,-0.0609,-0.0575,-0.0555,-0.0553,-0.0544,-0.0544,-0.0543,-0.0511,-0.0511,-0.051,-0.0509,-0.0401,-0.0397,-0.0394,-0.0382,0,0,-0.0382,-0.038,0,0,0,0,0,0,0,0,-0.0589,-0.0586,-0.0558,-0.0556,-0.0554,-0.0531,-0.0516,-0.0485,-0.0511,-0.0527,-0.051,-0.0509,-0.0437,-0.043,-0.0426,-0.0377,-0.0372,-0.0382,-0.0379,-0.0378,-0.0376,0,0,0,0,0,0,0,-0.0591,-0.0588,-0.0562,-0.0558,-0.0555,-0.0549,-0.0545,-0.051,-0.0484,-0.0525,-0.0523,-0.052,-0.0435,-0.043,-0.0423,-0.0371,-0.0382,-0.0378,-0.0376,-0.0374,-0.0249,-0.0248,0,0,0,0,0,0,-0.0596,-0.0589,-0.0563,-0.0561,-0.0571,-0.0549,-0.0544,-0.0539,-0.0486,-0.0478,-0.0521,-0.0519,-0.0437,-0.0428,-0.0419,-0.0377,-0.0378,-0.0374,-0.0372,-0.025,-0.0249,-0.0248,0,0,0,0,0,0,-0.0597,-0.0594,-0.0564,-0.0575,-0.0571,-0.0549,-0.0543,-0.0538,-0.0533,-0.0483,-0.0474,-0.052,-0.0436,-0.0424,-0.0384,-0.0373,-0.0372,-0.0369,-0.0252,-0.025,-0.0249,-0.0308,0,0,0,0,0,0,-0.0598,-0.0594,-0.0595,-0.0575,-0.057,-0.0563,-0.0543,-0.0538,-0.0533,-0.053,-0.0479,-0.0469,-0.0435,-0.039,-0.038,-0.0368,-0.0366,-0.0253,-0.0251,-0.0249,-0.0307,-0.0309,-0.031,0,0,0,0,0,-0.0599,-0.0608,-0.0595,-0.0592,-0.0572,-0.0563,-0.056,-0.0542,-0.0533,-0.0535,-0.0495,-0.047,-0.037,-0.0386,-0.0375,-0.0361,-0.0254,-0.0252,-0.0249,-0.0307,-0.0308,-0.031,0,0,0,0,0,0,-0.0599,-0.0605,-0.0591,-0.0593,-0.0579,-0.0558,-0.056,-0.0547,-0.052,-0.0513,-0.0466,-0.0453,-0.0411,-0.0375,-0.0395,-0.0316,-0.0304,-0.0299,-0.0351,-0.0352,-0.0353,-0.0373,-0.0363,0,0,0,0,0,-0.0605,-0.0626,-0.0608,-0.0605,-0.0604,-0.0582,-0.0578,-0.0564,-0.0537,-0.0526,-0.0491,-0.0441,-0.0393,-0.0367,-0.0324,-0.0288,-0.0256,-0.0266,-0.0267,-0.0269,-0.0274,-0.0222,-0.022,-0.0241,-0.0241,-0.0241,0,0,-0.0591,-0.0607,-0.0607,-0.061,-0.0598,-0.0603,-0.0578,-0.0573,-0.057,-0.0516,-0.05,-0.045,-0.0385,-0.0343,-0.0319,-0.0312,-0.0244,-0.0266,-0.0268,-0.0272,-0.0219,-0.0218,-0.0216,-0.0239,-0.0239,-0.024,0,0,-0.0611,-0.06,-0.0635,-0.0635,-0.0637,-0.0617,-0.0619,-0.06,-0.0586,-0.0564,-0.0514,-0.046,-0.0405,-0.0349,-0.0313,-0.0293,-0.0256,-0.0274,-0.0295,-0.0245,-0.0243,-0.0242,-0.02,-0.0194,-0.0272,-0.0272,-0.0272,0,-0.0597,-0.064,-0.0636,-0.0674,-0.0671,-0.0628,-0.0645,-0.0625,-0.0592,-0.0574,-0.0565,-0.0458,-0.0406,-0.0334,-0.0326,-0.0297,-0.027,-0.0301,-0.025,-0.0247,-0.0244,-0.0202,-0.0195,-0.0274,-0.0274,-0.0274,-0.0273,0,-0.0646,-0.0679,-0.0695,-0.0728,-0.0719,-0.0724,-0.0694,-0.0676,-0.0649,-0.0621,-0.056,-0.0488,-0.0422,-0.0389,-0.0354,-0.0296,-0.0283,-0.0264,-0.0256,-0.0247,-0.0201,-0.0193,-0.0278,-0.0277,-0.0276,-0.0276,0,0,-0.062,-0.0715,-0.0721,-0.0755,-0.075,-0.0747,-0.073,-0.0699,-0.068,-0.0636,-0.0606,-0.0515,-0.0471,-0.0427,-0.0363,-0.0314,-0.0269,-0.0289,-0.0285,-0.0266,-0.0167,-0.0133,-0.012,-0.0249,-0.0248,-0.0247,-0.0145,0,-0.0657,-0.0755,-0.0776,-0.0821,-0.0855,-0.0813,-0.0797,-0.0756,-0.071,-0.0669,-0.0582,-0.0524,-0.0486,-0.0443,-0.0394,-0.0293,-0.0249,-0.0299,-0.0163,-0.0159,-0.0144,-0.0109,-0.0094,-0.0,-0.0136,-0.0135,-0.0134,0,-0.07,-0.0768,-0.0839,-0.0888,-0.0891,-0.0895,-0.0847,-0.0832,-0.0751,-0.0716,-0.0645,-0.0572,-0.0477,-0.0454,-0.0305,-0.0342,-0.0268,-0.0198,-0.0192,-0.0135,-0.0108,-0.0027,0.0021,0.0142,-0.0121,-0.0122,-0.0123,0,-0.0709,-0.0804,-0.0866,-0.0883,-0.0919,-0.0921,-0.0911,-0.0842,-0.0816,-0.0738,-0.0696,-0.059,-0.0518,-0.042,-0.0276,-0.029,-0.012,-0.0116,-0.0017,-0.0014,0.004,0.0046,0.0207,-0.0025,-0.0026,-0.0026,-0.0026,0,-0.0749,-0.08,-0.0884,-0.0919,-0.0955,-0.0958,-0.095,-0.0921,-0.086,-0.0817,-0.0724,-0.0654,-0.0507,-0.0385,-0.0282,-0.0117,-0.0122,-0.0013,0.0021,0.0022,0.0024,0.0165,0.0212,-0.0022,-0.0023,-0.0024,-0.0024,0,-0.0759,-0.0819,-0.0899,-0.096,-0.0974,-0.0994,-0.0991,-0.0974,-0.0916,-0.0855,-0.0826,-0.0686,-0.0527,-0.0374,-0.019,-0.0106,0.0121,0.0094,0.0082,0.0112,0.0304,0.0346,0.0533,0.0609,0.0217,0.0219,0.022,0,-0.0781,-0.083,-0.0922,-0.096,-0.0996,-0.1026,-0.1028,-0.1002,-0.0981,-0.0865,-0.0835,-0.0665,-0.0538,-0.0262,-0.0077,0.0117,0.0205,0.0243,0.0224,0.033,0.0401,0.0424,0.0475,0.0274,0.0276,0.0277,0.0278,0,-0.081,-0.0841,-0.0904,-0.0982,-0.1021,-0.1055,-0.1068,-0.106,-0.1006,-0.094,-0.0828,-0.0716,-0.0444,-0.0209,0.0046,0.0163,0.0336,0.0276,0.04,0.0474,0.0498,0.058,0.0184,0.029,0.0289,0.0288,0.0287,0.0287,-0.0813,-0.0858,-0.0933,-0.0999,-0.1045,-0.1076,-0.1083,-0.1078,-0.1038,-0.0938,-0.0841,-0.0666,-0.0332,0.0033,0.018,0.048,0.0455,0.0561,0.0607,0.0623,0.069,0.0315,0.0448,0.0447,0.0447,0.0447,0.0447,0,-0.0817,-0.087,-0.0939,-0.1018,-0.1058,-0.1079,-0.1094,-0.1078,-0.1032,-0.0939,-0.0825,-0.0473,-0.0126,0.0192,0.0609,0.079,0.0828,0.0883,0.0923,0.0964,0.0651,0.0647,0.0812,0.0812,0.0812,0.0812,0.0812,0.0812,-0.0824,-0.0887,-0.0928,-0.1004,-0.105,-0.1075,-0.1077,-0.105,-0.0991,-0.0822,-0.0645,-0.0519,-0.0045,0.0641,0.1052,0.1101,0.1254,0.1245,0.1335,0.1116,0.1089,0.1063,0.1072,0.1324,0.1325,0.1627,0.163,0.1632]}],[{"header":{"parameterUnit":"m.s-1","parameterCategory":2,"la1":30.2991,"la2":30.254,"lo1":-89.0895,"lo2":-89.0444,"dy":0.0017,"dx":0.0017,"nx":28,"ny":28,"refTime":"2025-01-08T09:00:00:Z","depth":"2","parameterNumber":2,"parameterNumberName":"U-component_of_CURRENTS"},"data":[0,0,0,0,0,0,0,0,0,0,0,0,0,0,0,0,0,0,0,0,0,0,0,0,0,0,0,0,0,0,0,0,0,0,0,0,0,0,0,0,0,0,0,0,0,0,0,0,0,0,0,0,0,0,0,0,0,0,-0.2246,-0.2246,0,-0.2253,-0.2253,-0.2253,-0.2236,-0.2236,-0.2236,-0.2236,-0.2249,-0.225,-0.225,0,0,0,0,0,0,0,0,0,0,0,0,0,-0.221,-0.221,-0.2246,-0.2246,-0.2247,-0.2253,-0.2253,-0.2252,-0.2236,-0.2236,-0.2236,-0.2236,-0.2249,-0.225,-0.225,0,0,0,0,0,0,0,0,0,0,0,0,0,-0.2216,-0.221,-0.2246,-0.2244,-0.2244,-0.2253,-0.2253,-0.2252,-0.2236,-0.2236,-0.2236,-0.2236,-0.2249,-0.225,-0.225,-0.2253,0,0,-0.2252,-0.2252,0,0,0,0,0,0,0,0,-0.2216,-0.2217,-0.2243,-0.2244,-0.2245,-0.2249,-0.2245,-0.2255,-0.2236,-0.2233,-0.2236,-0.2236,-0.2254,-0.2254,-0.2247,-0.2254,-0.2254,-0.2252,-0.2252,-0.2252,-0.2253,0,0,0,0,0,0,0,-0.2216,-0.2217,-0.2243,-0.2244,-0.2245,-0.2241,-0.2241,-0.2247,-0.2239,-0.2233,-0.2234,-0.2244,-0.2253,-0.2246,-0.2247,-0.2255,-0.2252,-0.2252,-0.2253,-0.2253,-0.2247,-0.2247,0,0,0,0,0,0,-0.2227,-0.2216,-0.2243,-0.2244,-0.2237,-0.2242,-0.2242,-0.2243,-0.2239,-0.224,-0.2244,-0.2243,-0.2245,-0.2246,-0.2248,-0.226,-0.2252,-0.2253,-0.2253,-0.2248,-0.2247,-0.2247,0,0,0,0,0,0,-0.2226,-0.2229,-0.2242,-0.2235,-0.2237,-0.2243,-0.2244,-0.2243,-0.2256,-0.2248,-0.2247,-0.2261,-0.2245,-0.2247,-0.227,-0.2261,-0.2253,-0.2254,-0.2248,-0.2247,-0.2247,-0.2281,0,0,0,0,0,0,-0.2225,-0.2228,-0.2228,-0.2236,-0.2239,-0.225,-0.2244,-0.2243,-0.2264,-0.2264,-0.2262,-0.2262,-0.2246,-0.227,-0.2271,-0.2261,-0.2254,-0.2249,-0.2248,-0.2247,-0.228,-0.2281,-0.2282,0,0,0,0,0,-0.2223,-0.2218,-0.2227,-0.2231,-0.2239,-0.2251,-0.2251,-0.2251,-0.2265,-0.2264,-0.2276,-0.2263,-0.2263,-0.2271,-0.2272,-0.2262,-0.2249,-0.2248,-0.2247,-0.228,-0.2281,-0.2282,0,0,0,0,0,0,-0.2183,-0.2217,-0.2227,-0.2227,-0.2244,-0.225,-0.2253,-0.2268,-0.2276,-0.2282,-0.2279,-0.2279,-0.2286,-0.2275,-0.2284,-0.2254,-0.2245,-0.2245,-0.2269,-0.2271,-0.2272,-0.2269,-0.2254,0,0,0,0,0,-0.2182,-0.2191,-0.2222,-0.2217,-0.2235,-0.2254,-0.2261,-0.2268,-0.2281,-0.2285,-0.2289,-0.2285,-0.2278,-0.228,-0.2268,-0.2274,-0.2258,-0.2259,-0.226,-0.2261,-0.2257,-0.224,-0.2239,-0.2243,-0.2243,-0.2243,0,0,-0.216,-0.2182,-0.2183,-0.2211,-0.2226,-0.2246,-0.2256,-0.2274,-0.2284,-0.2287,-0.23,-0.2297,-0.2281,-0.2274,-0.2274,-0.2269,-0.2251,-0.2259,-0.2261,-0.2257,-0.2239,-0.2238,-0.2238,-0.2242,-0.2242,-0.2243,0,0,-0.2127,-0.2152,-0.2157,-0.2185,-0.2225,-0.224,-0.2257,-0.2284,-0.229,-0.2316,-0.2306,-0.2307,-0.2311,-0.2284,-0.2276,-0.2279,-0.2259,-0.2268,-0.2274,-0.2257,-0.2257,-0.2257,-0.224,-0.2238,-0.2266,-0.2266,-0.2266,0,-0.2098,-0.212,-0.2156,-0.2181,-0.2204,-0.2247,-0.2263,-0.2278,-0.2303,-0.2312,-0.2324,-0.2318,-0.2309,-0.2291,-0.2284,-0.2282,-0.2272,-0.2276,-0.226,-0.2259,-0.2259,-0.2241,-0.2238,-0.2268,-0.2268,-0.2268,-0.2267,0,-0.2087,-0.2111,-0.212,-0.217,-0.2192,-0.2216,-0.2258,-0.2278,-0.2309,-0.2323,-0.2331,-0.2323,-0.2315,-0.2305,-0.2301,-0.2278,-0.2273,-0.2268,-0.2262,-0.2261,-0.2242,-0.2239,-0.227,-0.227,-0.2269,-0.2269,0,0,-0.1999,-0.2095,-0.2096,-0.2125,-0.2197,-0.2207,-0.2243,-0.2276,-0.23,-0.232,-0.2333,-0.2321,-0.2324,-0.2312,-0.2297,-0.2283,-0.2271,-0.2276,-0.2275,-0.2269,-0.2237,-0.2145,-0.2133,-0.227,-0.2269,-0.2269,-0.2228,0,-0.1979,-0.2022,-0.2076,-0.2106,-0.2138,-0.22,-0.2228,-0.2263,-0.2299,-0.2321,-0.2322,-0.2325,-0.2324,-0.2319,-0.2308,-0.228,-0.2263,-0.2282,-0.223,-0.2229,-0.2155,-0.2126,-0.196,-0.1901,-0.2224,-0.2224,-0.2223,0,-0.195,-0.1991,-0.2022,-0.2098,-0.2116,-0.2139,-0.2196,-0.2226,-0.2277,-0.2304,-0.2319,-0.2329,-0.2312,-0.2313,-0.2275,-0.2291,-0.2263,-0.2244,-0.2242,-0.214,-0.213,-0.1953,-0.1883,-0.2217,-0.2218,-0.2218,-0.2219,0,-0.187,-0.1946,-0.1968,-0.1997,-0.2088,-0.2108,-0.2152,-0.2215,-0.223,-0.2284,-0.2292,-0.2308,-0.2286,-0.2279,-0.2248,-0.2263,-0.2204,-0.2217,-0.2108,-0.2102,-0.1939,-0.1918,-0.2179,-0.2179,-0.2179,-0.2179,-0.2179,0,-0.183,-0.1844,-0.1937,-0.1951,-0.1971,-0.2058,-0.2079,-0.2133,-0.2192,-0.2191,-0.2263,-0.2244,-0.2275,-0.2252,-0.2244,-0.2155,-0.2197,-0.2094,-0.2076,-0.1944,-0.1926,-0.2184,-0.2185,-0.2178,-0.2178,-0.2178,-0.2178,0,-0.1731,-0.1798,-0.1821,-0.1912,-0.1932,-0.1942,-0.2016,-0.2032,-0.211,-0.2107,-0.2115,-0.2171,-0.2145,-0.2165,-0.2138,-0.2109,-0.2065,-0.2022,-0.1866,-0.1829,-0.1981,-0.1985,-0.19,-0.1896,-0.1893,-0.189,-0.1888,0,-0.1689,-0.1695,-0.1758,-0.1758,-0.1795,-0.1833,-0.1854,-0.196,-0.1972,-0.204,-0.2014,-0.2023,-0.199,-0.1941,-0.19,-0.186,-0.1952,-0.1684,-0.1671,-0.1956,-0.1949,-0.1957,-0.1965,-0.1476,-0.1471,-0.1467,-0.1463,0,-0.1602,-0.1619,-0.1636,-0.1639,-0.1654,-0.1668,-0.1712,-0.1711,-0.1818,-0.1821,-0.1818,-0.181,-0.1772,-0.1652,-0.1615,-0.1578,-0.1687,-0.159,-0.1908,-0.1573,-0.1553,-0.1548,-0.1569,-0.1423,-0.1427,-0.143,-0.1432,-0.1434,-0.1519,-0.1503,-0.1521,-0.1511,-0.1519,-0.1506,-0.1485,-0.1528,-0.1525,-0.1525,-0.1588,-0.1533,-0.153,-0.1379,-0.1309,-0.1272,-0.14,-0.1352,-0.1367,-0.1387,-0.1345,-0.132,-0.114,-0.1142,-0.1144,-0.1146,-0.1147,0,-0.1426,-0.1417,-0.1397,-0.1382,-0.1341,-0.1388,-0.1383,-0.1346,-0.1301,-0.1311,-0.1294,-0.1157,-0.1061,-0.1084,-0.0949,-0.0926,-0.094,-0.0896,-0.0914,-0.0953,-0.0987,-0.0928,-0.061,-0.0609,-0.0608,-0.0606,0,0,-0.1376,-0.1331,-0.1322,-0.1224,-0.1202,-0.1126,-0.1102,-0.1055,-0.1039,-0.0965,-0.0935,-0.0999,-0.1032,-0.0819,-0.0766,-0.0665,-0.0807,-0.0628,-0.1054,-0.1111,-0.1144,-0.1237,-0.1186,0,0,0,0,0]},{"header":{"parameterUnit":"m.s-1","parameterCategory":2,"la1":30.2991,"la2":30.254,"lo1":-89.0895,"lo2":-89.0444,"dy":0.0017,"dx":0.0017,"nx":28,"ny":28,"refTime":"2025-01-08T09:00:00:Z","depth":"2","parameterNumber":3,"parameterNumberName":"V-component_of_CURRENTS"},"data":[0,0,0,0,0,0,0,0,0,0,0,0,0,0,0,0,0,0,0,0,0,0,0,0,0,0,0,0,0,0,0,0,0,0,0,0,0,0,0,0,0,0,0,0,0,0,0,0,0,0,0,0,0,0,0,0,0,0,-0.0149,-0.0149,0,-0.0072,-0.0071,-0.007,-0.002,-0.002,-0.002,-0.002,-0.0011,-0.001,-0.001,0,0,0,0,0,0,0,0,0,0,0,0,0,-0.0182,-0.0182,-0.0149,-0.0149,-0.0148,-0.0072,-0.0071,-0.0069,-0.002,-0.002,-0.002,-0.002,-0.0011,-0.001,-0.001,0,0,0,0,0,0,0,0,0,0,0,0,0,-0.0139,-0.0182,-0.0149,-0.0117,-0.0114,-0.0072,-0.0071,-0.0069,-0.002,-0.002,-0.002,-0.002,-0.0011,-0.0011,-0.001,-0.0006,0,0,-0.0009,-0.0009,0,0,0,0,0,0,0,0,-0.0142,-0.0138,-0.0122,-0.0119,-0.0115,-0.0059,-0.0079,-0.0053,-0.002,-0.0052,-0.002,-0.002,-0.0036,-0.0033,-0.0012,-0.0006,-0.0005,-0.0009,-0.0008,-0.0008,-0.0008,0,0,0,0,0,0,0,-0.0145,-0.014,-0.0115,-0.0122,-0.0117,-0.0082,-0.0076,-0.0073,-0.0043,-0.0049,-0.0046,-0.0043,-0.0034,-0.0013,-0.0012,-0.0005,-0.0009,-0.0008,-0.0008,-0.0008,-0.0005,-0.0005,0,0,0,0,0,0,-0.0166,-0.0143,-0.0117,-0.0113,-0.0133,-0.0082,-0.0075,-0.0074,-0.0041,-0.0037,-0.0043,-0.0041,-0.0013,-0.0012,-0.0012,-0.0026,-0.0008,-0.0008,-0.0008,-0.0005,-0.0005,-0.0005,0,0,0,0,0,0,-0.0167,-0.0164,-0.0121,-0.0129,-0.0122,-0.0082,-0.008,-0.0072,-0.0063,-0.0037,-0.0033,-0.0044,-0.0013,-0.0012,-0.0024,-0.0025,-0.0008,-0.0007,-0.0004,-0.0005,-0.0005,-0.0043,0,0,0,0,0,0,-0.0168,-0.0165,-0.0172,-0.0131,-0.0122,-0.011,-0.0081,-0.0071,-0.0062,-0.0059,-0.0036,-0.0034,-0.0013,-0.0025,-0.0023,-0.0024,-0.0007,-0.0004,-0.0004,-0.0005,-0.0042,-0.0045,-0.0048,0,0,0,0,0,-0.0169,-0.0182,-0.0173,-0.017,-0.0133,-0.0111,-0.0103,-0.0071,-0.0062,-0.0062,-0.0051,-0.0035,-0.0025,-0.0025,-0.0023,-0.0024,-0.0004,-0.0004,-0.0005,-0.0041,-0.0044,-0.0048,0,0,0,0,0,0,-0.0199,-0.0177,-0.0167,-0.0172,-0.015,-0.0104,-0.0103,-0.0083,-0.0069,-0.0073,-0.0047,-0.0045,-0.0049,-0.0036,-0.0037,-0.0023,-0.0008,-0.0008,-0.0036,-0.0039,-0.0042,-0.0046,-0.0007,0,0,0,0,0,-0.0211,-0.0214,-0.0186,-0.019,-0.0185,-0.0147,-0.0136,-0.0115,-0.0097,-0.009,-0.0072,-0.0057,-0.0046,-0.0046,-0.0032,-0.0036,-0.0008,-0.0032,-0.0034,-0.0037,-0.0039,-0.0001,-0.0,-0.0006,-0.0006,-0.0006,0,0,-0.0222,-0.0212,-0.0213,-0.0197,-0.0178,-0.0174,-0.014,-0.0131,-0.0125,-0.0095,-0.009,-0.0071,-0.005,-0.0045,-0.0045,-0.0038,-0.002,-0.0038,-0.004,-0.004,-0.0001,-0.0,0.0,-0.0006,-0.0006,-0.0006,0,0,-0.025,-0.0242,-0.0255,-0.0243,-0.0226,-0.0202,-0.0207,-0.0171,-0.0154,-0.0151,-0.0121,-0.0107,-0.0096,-0.0068,-0.0057,-0.0071,-0.0037,-0.0067,-0.0086,-0.005,-0.0049,-0.0048,-0.0011,-0.0006,-0.0068,-0.0069,-0.0069,0,-0.0266,-0.0281,-0.0255,-0.0264,-0.026,-0.0223,-0.0233,-0.0209,-0.0178,-0.0167,-0.0162,-0.0119,-0.0102,-0.0083,-0.0084,-0.0077,-0.0052,-0.0077,-0.0053,-0.0052,-0.005,-0.0012,-0.0006,-0.007,-0.007,-0.007,-0.007,0,-0.0305,-0.0314,-0.0323,-0.0322,-0.031,-0.0316,-0.0283,-0.0271,-0.0252,-0.0219,-0.0198,-0.0164,-0.0137,-0.0125,-0.0113,-0.0088,-0.0073,-0.0061,-0.0046,-0.0052,-0.0011,-0.0005,-0.0073,-0.0073,-0.0072,-0.0071,0,0,-0.0344,-0.0351,-0.0354,-0.0364,-0.0345,-0.034,-0.0332,-0.031,-0.0306,-0.0266,-0.0251,-0.0215,-0.0183,-0.0168,-0.0137,-0.0104,-0.0068,-0.0084,-0.0081,-0.0049,0.0013,0.0038,0.0049,-0.0055,-0.0054,-0.0053,0.0036,0,-0.0385,-0.0427,-0.0407,-0.0432,-0.0449,-0.0409,-0.0404,-0.0373,-0.0343,-0.0318,-0.0261,-0.0238,-0.0203,-0.0192,-0.0153,-0.0089,-0.0053,-0.0094,0.0015,0.0019,0.0041,0.0056,0.0039,0.0119,0.0043,0.0044,0.0045,0,-0.0431,-0.0453,-0.0499,-0.0495,-0.0498,-0.0503,-0.0487,-0.0473,-0.0419,-0.0394,-0.0346,-0.0295,-0.0234,-0.0211,-0.0096,-0.0125,-0.0064,-0.0011,-0.0006,0.0036,0.0057,0.0113,0.0134,0.0056,0.0056,0.0055,0.0054,0,-0.0487,-0.0509,-0.0553,-0.0556,-0.0551,-0.0558,-0.0548,-0.0505,-0.049,-0.0439,-0.0418,-0.0335,-0.0293,-0.0203,-0.0086,-0.0093,0.0041,0.0047,0.0132,0.0134,0.0151,0.0154,0.0123,0.0123,0.0123,0.0122,0.0122,0,-0.0543,-0.0569,-0.0591,-0.0617,-0.0652,-0.0621,-0.0636,-0.0611,-0.057,-0.0547,-0.0463,-0.0423,-0.029,-0.0189,-0.0094,0.0047,0.0041,0.0135,0.0162,0.0137,0.0137,0.0106,0.0102,0.0126,0.0125,0.0124,0.0124,0,-0.0589,-0.0611,-0.0657,-0.0679,-0.0686,-0.0711,-0.0695,-0.0694,-0.0652,-0.0619,-0.0601,-0.0481,-0.0346,-0.0204,-0.0047,0.0041,0.0167,0.0214,0.0179,0.0199,0.0236,0.023,0.0319,0.0321,0.0322,0.0323,0.0324,0,-0.0616,-0.0654,-0.0709,-0.0738,-0.0753,-0.0777,-0.0784,-0.0748,-0.0737,-0.0647,-0.0633,-0.0496,-0.0387,-0.0141,0.0032,0.0216,0.0211,0.0304,0.0289,0.0241,0.0258,0.0249,0.0241,0.0298,0.0299,0.03,0.03,0,-0.0654,-0.0684,-0.0725,-0.0794,-0.0825,-0.0845,-0.0852,-0.0855,-0.0797,-0.0752,-0.0663,-0.0568,-0.0328,-0.012,0.0119,0.0223,0.0274,0.0323,0.0293,0.0246,0.0228,0.0242,0.0233,0.0305,0.0305,0.0304,0.0304,0.0304,-0.0673,-0.0714,-0.0775,-0.0831,-0.0871,-0.0897,-0.0902,-0.0889,-0.0861,-0.0772,-0.069,-0.0525,-0.033,0.0016,0.0181,0.0341,0.0335,0.038,0.0376,0.0371,0.0348,0.0332,0.0426,0.0426,0.0426,0.0426,0.0426,0,-0.0684,-0.0733,-0.0795,-0.0862,-0.09,-0.0914,-0.0926,-0.0903,-0.0861,-0.0769,-0.0666,-0.0427,-0.0195,0.0011,0.0266,0.0411,0.0393,0.0436,0.0383,0.0378,0.0373,0.0347,0.0426,0.0426,0.0427,0.0427,0,0,-0.0693,-0.0753,-0.0789,-0.0861,-0.0903,-0.0923,-0.0924,-0.0885,-0.0817,-0.0708,-0.0586,-0.0437,-0.0183,-0.0005,0.0176,0.031,0.0304,0.0323,0.031,0.0221,0.0214,0.033,0.0284,0,0,0,0,0]}],[{"header":{"parameterUnit":"m.s-1","parameterCategory":2,"la1":30.2991,"la2":30.254,"lo1":-89.0895,"lo2":-89.0444,"dy":0.0017,"dx":0.0017,"nx":28,"ny":28,"refTime":"2025-01-08T09:00:00:Z","depth":"4","parameterNumber":2,"parameterNumberName":"U-component_of_CURRENTS"},"data":[0,0,0,0,0,0,0,0,0,0,0,0,0,0,0,0,0,0,0,0,0,0,0,0,0,0,0,0,0,0,0,0,0,0,0,0,0,0,0,0,0,0,0,0,0,0,0,0,0,0,0,0,0,0,0,0,0,0,-0.1282,-0.1283,0,-0.1312,-0.1312,-0.1312,-0.1346,-0.1347,-0.1347,-0.1348,-0.1459,-0.1462,-0.1464,0,0,0,0,0,0,0,0,0,0,0,0,0,-0.1298,-0.1297,-0.1282,-0.1283,-0.1283,-0.1312,-0.1312,-0.1312,-0.1346,-0.1347,-0.1348,-0.1348,-0.1458,-0.1461,-0.1464,0,0,0,0,0,0,0,0,0,0,0,0,0,-0.1304,-0.1297,-0.1282,-0.1305,-0.1307,-0.1312,-0.1312,-0.1312,-0.1346,-0.1347,-0.1348,-0.1349,-0.1458,-0.1461,-0.1465,-0.1468,0,0,-0.1475,-0.1477,0,0,0,0,0,0,0,0,-0.1304,-0.1303,-0.1301,-0.1303,-0.1306,-0.1327,-0.1358,-0.1369,-0.1346,-0.133,-0.1348,-0.1349,-0.1423,-0.1429,-0.143,-0.1473,-0.1478,-0.1476,-0.1478,-0.1479,-0.148,0,0,0,0,0,0,0,-0.1303,-0.1303,-0.1293,-0.1301,-0.1304,-0.1328,-0.1329,-0.136,-0.1371,-0.1331,-0.1334,-0.1339,-0.1425,-0.1426,-0.1433,-0.1479,-0.1476,-0.1479,-0.1481,-0.1482,-0.1652,-0.1654,0,0,0,0,0,0,-0.1298,-0.1302,-0.1292,-0.1294,-0.1308,-0.1326,-0.1328,-0.1318,-0.1369,-0.1378,-0.1338,-0.1341,-0.142,-0.1429,-0.1437,-0.1526,-0.1479,-0.1483,-0.1485,-0.165,-0.1653,-0.1655,0,0,0,0,0,0,-0.1298,-0.1297,-0.1291,-0.1301,-0.1302,-0.1325,-0.1314,-0.1319,-0.1343,-0.1374,-0.1384,-0.1361,-0.1421,-0.1432,-0.1487,-0.1528,-0.1484,-0.1488,-0.1647,-0.1651,-0.1654,-0.1653,0,0,0,0,0,0,-0.1298,-0.1296,-0.1302,-0.1299,-0.1301,-0.1306,-0.1314,-0.1319,-0.1344,-0.1348,-0.1396,-0.1406,-0.1422,-0.1482,-0.1491,-0.1532,-0.149,-0.1644,-0.1649,-0.1653,-0.165,-0.1656,-0.1661,0,0,0,0,0,-0.1299,-0.1297,-0.1301,-0.1301,-0.1302,-0.1307,-0.131,-0.1329,-0.1344,-0.1355,-0.1394,-0.1406,-0.1518,-0.1486,-0.1496,-0.1539,-0.1642,-0.1647,-0.1653,-0.1647,-0.1655,-0.1661,0,0,0,0,0,0,-0.1321,-0.13,-0.1305,-0.1302,-0.1311,-0.1314,-0.1329,-0.134,-0.1376,-0.1393,-0.142,-0.1432,-0.15,-0.1523,-0.1487,-0.1607,-0.1589,-0.1596,-0.1582,-0.1589,-0.1594,-0.1579,-0.1493,0,0,0,0,0,-0.1324,-0.1309,-0.1307,-0.131,-0.1314,-0.1326,-0.1336,-0.135,-0.1373,-0.139,-0.1424,-0.1476,-0.1526,-0.1558,-0.16,-0.1654,-0.1645,-0.1698,-0.1704,-0.1708,-0.1706,-0.1721,-0.1726,-0.1673,-0.1673,-0.1673,0,0,-0.134,-0.1323,-0.1322,-0.1313,-0.1322,-0.1334,-0.1335,-0.1356,-0.1381,-0.1399,-0.1455,-0.1492,-0.1545,-0.1608,-0.1643,-0.1634,-0.1718,-0.1715,-0.1717,-0.1713,-0.1727,-0.1731,-0.1735,-0.1676,-0.1676,-0.1675,0,0,-0.1343,-0.1345,-0.1328,-0.1337,-0.1347,-0.1358,-0.1368,-0.1385,-0.141,-0.1458,-0.1488,-0.1542,-0.1616,-0.1655,-0.1687,-0.1751,-0.1744,-0.1785,-0.1802,-0.1816,-0.1819,-0.1822,-0.1801,-0.1801,-0.1791,-0.1791,-0.1791,0,-0.1367,-0.1341,-0.1333,-0.1327,-0.1346,-0.137,-0.1383,-0.141,-0.1448,-0.1473,-0.1485,-0.1598,-0.1637,-0.1713,-0.174,-0.1762,-0.1755,-0.1763,-0.1819,-0.1821,-0.1824,-0.1801,-0.1802,-0.1792,-0.1792,-0.1792,-0.1792,0,-0.1352,-0.135,-0.1349,-0.1346,-0.1367,-0.1387,-0.1419,-0.1455,-0.1494,-0.1518,-0.1599,-0.1647,-0.1711,-0.1746,-0.1763,-0.1822,-0.1805,-0.1814,-0.1787,-0.1828,-0.1803,-0.1804,-0.1793,-0.1793,-0.1792,-0.1792,0,0,-0.1352,-0.134,-0.1344,-0.1349,-0.1384,-0.1398,-0.1451,-0.1495,-0.1537,-0.1589,-0.164,-0.1726,-0.1747,-0.1785,-0.182,-0.1842,-0.185,-0.1839,-0.184,-0.1791,-0.1855,-0.1722,-0.1709,-0.1866,-0.1867,-0.1867,-0.1821,0,-0.1348,-0.1337,-0.1341,-0.1369,-0.1372,-0.1423,-0.147,-0.1522,-0.1575,-0.1632,-0.169,-0.1757,-0.1766,-0.1807,-0.1827,-0.1857,-0.1856,-0.186,-0.1846,-0.1845,-0.17,-0.1708,-0.187,-0.1822,-0.1822,-0.1822,-0.1822,0,-0.1326,-0.1319,-0.1336,-0.1369,-0.1381,-0.1416,-0.1501,-0.1545,-0.1628,-0.167,-0.1732,-0.1776,-0.1834,-0.1834,-0.1866,-0.1868,-0.1857,-0.1864,-0.1862,-0.1737,-0.1713,-0.1781,-0.1823,-0.1823,-0.1823,-0.1823,-0.1823,0,-0.1308,-0.132,-0.1336,-0.1351,-0.1397,-0.1431,-0.1474,-0.1557,-0.1599,-0.1694,-0.1732,-0.1802,-0.1839,-0.1853,-0.1862,-0.187,-0.1872,-0.1884,-0.1743,-0.1733,-0.1865,-0.1863,-0.1882,-0.1882,-0.1882,-0.1883,-0.1883,0,-0.1284,-0.1296,-0.1331,-0.1339,-0.1375,-0.1422,-0.1483,-0.1537,-0.1618,-0.1651,-0.1744,-0.1768,-0.1847,-0.1859,-0.186,-0.1786,-0.1862,-0.1731,-0.1712,-0.1866,-0.1865,-0.1864,-0.1862,-0.1881,-0.1881,-0.1882,-0.1882,0,-0.1242,-0.1269,-0.1284,-0.1338,-0.1359,-0.1387,-0.1464,-0.1497,-0.1589,-0.1634,-0.1664,-0.1746,-0.1747,-0.1792,-0.1809,-0.1759,-0.1729,-0.1681,-0.1817,-0.1809,-0.1577,-0.1577,-0.1514,-0.1508,-0.1504,-0.1501,-0.1498,0,-0.1208,-0.1212,-0.1273,-0.1282,-0.1303,-0.1352,-0.1377,-0.147,-0.1491,-0.159,-0.1585,-0.1636,-0.1669,-0.1573,-0.164,-0.1611,-0.1599,-0.1569,-0.1591,-0.1551,-0.154,-0.1547,-0.1552,-0.1491,-0.149,-0.1488,-0.1487,0,-0.1141,-0.1183,-0.1197,-0.1217,-0.1242,-0.1262,-0.1298,-0.1302,-0.139,-0.1491,-0.146,-0.1466,-0.1455,-0.1464,-0.145,-0.1438,-0.1591,-0.1524,-0.1533,-0.1554,-0.1522,-0.1517,-0.1528,-0.1472,-0.1474,-0.1476,-0.1477,0,-0.1096,-0.1095,-0.1127,-0.1131,-0.1161,-0.1143,-0.118,-0.1176,-0.121,-0.131,-0.1286,-0.1343,-0.1413,-0.137,-0.1359,-0.1336,-0.1322,-0.1292,-0.1313,-0.133,-0.1296,-0.1231,-0.106,0,0,0,0,0,-0.1038,-0.1027,-0.1029,-0.1027,-0.1053,-0.1067,-0.1109,-0.1147,-0.1228,-0.1159,-0.1219,-0.12,-0.1185,-0.1219,-0.1156,-0.1288,-0.1337,-0.1211,-0.1316,-0.1389,-0.1407,-0.1387,0,0,0,0,0,0,-0.0996,-0.1005,-0.0998,-0.0936,-0.0917,-0.0927,-0.0948,-0.1001,-0.0966,-0.1057,-0.1046,-0.1126,-0.1125,-0.1199,-0.1133,-0.1144,-0.1182,-0.1254,-0.1251,-0.138,-0.1395,-0.1409,-0.1395,0,0,0,0,0]},{"header":{"parameterUnit":"m.s-1","parameterCategory":2,"la1":30.2991,"la2":30.254,"lo1":-89.0895,"lo2":-89.0444,"dy":0.0017,"dx":0.0017,"nx":28,"ny":28,"refTime":"2025-01-08T09:00:00:Z","depth":"4","parameterNumber":3,"parameterNumberName":"V-component_of_CURRENTS"},"data":[0,0,0,0,0,0,0,0,0,0,0,0,0,0,0,0,0,0,0,0,0,0,0,0,0,0,0,0,0,0,0,0,0,0,0,0,0,0,0,0,0,0,0,0,0,0,0,0,0,0,0,0,0,0,0,0,0,0,0.0045,0.0045,0,0.0073,0.0073,0.0073,0.0098,0.0098,0.0098,0.0098,0.0129,0.013,0.013,0,0,0,0,0,0,0,0,0,0,0,0,0,0.0041,0.0041,0.0045,0.0045,0.0046,0.0073,0.0073,0.0074,0.0098,0.0098,0.0098,0.0098,0.0129,0.013,0.013,0,0,0,0,0,0,0,0,0,0,0,0,0,0.0054,0.0041,0.0045,0.006,0.0062,0.0072,0.0073,0.0074,0.0097,0.0098,0.0098,0.0098,0.0129,0.013,0.013,0.0131,0,0,0.0133,0.0134,0,0,0,0,0,0,0,0,0.0053,0.0054,0.0058,0.0059,0.0061,0.0081,0.0083,0.0093,0.0097,0.0085,0.0098,0.0098,0.0112,0.0115,0.0121,0.0133,0.0134,0.0134,0.0134,0.0135,0.0135,0,0,0,0,0,0,0,0.0052,0.0053,0.0057,0.0058,0.006,0.0075,0.0077,0.0085,0.0098,0.0086,0.0088,0.0089,0.0113,0.012,0.0122,0.0134,0.0134,0.0134,0.0135,0.0135,0.0135,0.0134,0,0,0,0,0,0,0.0045,0.0052,0.0056,0.0058,0.0056,0.0074,0.0077,0.0075,0.0098,0.0101,0.0089,0.009,0.0118,0.012,0.0123,0.0119,0.0135,0.0136,0.0136,0.0135,0.0135,0.0134,0,0,0,0,0,0,0.0045,0.0045,0.0055,0.0055,0.0057,0.0074,0.0072,0.0075,0.0084,0.0099,0.0103,0.0094,0.0118,0.0121,0.0127,0.012,0.0136,0.0137,0.0136,0.0135,0.0134,0.0115,0,0,0,0,0,0,0.0044,0.0044,0.004,0.0054,0.0057,0.0056,0.0072,0.0076,0.0084,0.0086,0.0105,0.0108,0.0119,0.0125,0.0128,0.0122,0.0138,0.0137,0.0136,0.0135,0.0116,0.0113,0.0111,0,0,0,0,0,0.0044,0.0034,0.004,0.004,0.0051,0.0056,0.0059,0.0073,0.0083,0.0082,0.0096,0.0107,0.012,0.0126,0.0129,0.0123,0.0138,0.0136,0.0135,0.0117,0.0114,0.0111,0,0,0,0,0,0,0.002,0.0036,0.0043,0.0035,0.0043,0.006,0.0057,0.0072,0.0082,0.0084,0.0104,0.0107,0.0108,0.0116,0.0123,0.0118,0.0129,0.0128,0.0115,0.0111,0.0109,0.011,0.0138,0,0,0,0,0,0.0015,0.0016,0.0029,0.0022,0.0025,0.0043,0.0047,0.0057,0.0069,0.0074,0.009,0.01,0.0104,0.0109,0.0114,0.0115,0.0134,0.0111,0.0108,0.0106,0.0108,0.0129,0.0128,0.013,0.013,0.013,0,0,-0.0001,0.0011,0.0008,0.0018,0.0025,0.0024,0.0046,0.0048,0.005,0.0075,0.0081,0.0091,0.0101,0.01,0.0101,0.0108,0.0115,0.0104,0.0103,0.0106,0.0127,0.0127,0.0127,0.0129,0.0129,0.0129,0,0,-0.0026,-0.0018,-0.0023,-0.0016,-0.0004,0.0007,0.0008,0.0025,0.0036,0.0042,0.0058,0.0067,0.0076,0.0085,0.0089,0.0074,0.0099,0.0071,0.0063,0.0082,0.0083,0.0084,0.011,0.0113,0.0072,0.0072,0.0072,0,-0.0047,-0.0049,-0.0027,-0.0029,-0.0028,-0.0002,-0.0012,0.0002,0.0021,0.0029,0.0038,0.0058,0.0069,0.0072,0.0066,0.007,0.0087,0.0076,0.008,0.0081,0.0082,0.0109,0.0113,0.0071,0.0071,0.0071,0.0071,0,-0.0075,-0.0075,-0.008,-0.0071,-0.0067,-0.0073,-0.0052,-0.0043,-0.0025,-0.0006,0.0006,0.0026,0.0038,0.0041,0.0051,0.0059,0.0071,0.0075,0.0091,0.0081,0.011,0.0114,0.0069,0.0069,0.007,0.007,0,0,-0.0129,-0.0104,-0.0109,-0.0108,-0.009,-0.0093,-0.0087,-0.0075,-0.0074,-0.0043,-0.0037,-0.0016,0.0005,0.0011,0.0027,0.0049,0.0073,0.0064,0.0066,0.0096,0.0124,0.0114,0.0118,0.0079,0.008,0.008,0.0143,0,-0.0161,-0.0175,-0.0151,-0.0168,-0.0173,-0.0144,-0.0144,-0.0125,-0.0104,-0.009,-0.0051,-0.0044,-0.001,-0.0009,0.0021,0.0056,0.0083,0.0057,0.0125,0.0127,0.0124,0.0122,0.0082,0.0146,0.0147,0.0148,0.0149,0,-0.0199,-0.0199,-0.0226,-0.021,-0.0212,-0.0218,-0.0213,-0.0206,-0.0171,-0.0154,-0.0122,-0.009,-0.0051,-0.0029,0.005,0.0032,0.0077,0.0111,0.0115,0.0115,0.0124,0.0157,0.0157,0.0156,0.0155,0.0155,0.0154,0,-0.0255,-0.0251,-0.0276,-0.0276,-0.0259,-0.0265,-0.0254,-0.023,-0.023,-0.0195,-0.0193,-0.013,-0.0111,-0.0038,0.0044,0.0046,0.0131,0.014,0.0178,0.0178,0.0179,0.0178,0.0194,0.0194,0.0194,0.0194,0.0193,0,-0.0298,-0.0313,-0.0306,-0.0323,-0.035,-0.0315,-0.0337,-0.0318,-0.0297,-0.0297,-0.0232,-0.0221,-0.0114,-0.0049,0.0034,0.0121,0.0127,0.0179,0.0192,0.0169,0.0166,0.0183,0.0181,0.0196,0.0195,0.0195,0.0195,0,-0.0347,-0.0348,-0.0376,-0.0376,-0.038,-0.0401,-0.0395,-0.04,-0.0376,-0.0376,-0.0369,-0.0291,-0.0199,-0.0088,0.0028,0.0093,0.0182,0.021,0.0182,0.0192,0.0223,0.0219,0.0263,0.0263,0.0263,0.0263,0.0263,0,-0.0366,-0.0391,-0.043,-0.0455,-0.0457,-0.0474,-0.0483,-0.0454,-0.0455,-0.0415,-0.0417,-0.0336,-0.0269,-0.0105,0.0011,0.0169,0.0187,0.0234,0.023,0.0221,0.0229,0.0225,0.0221,0.0263,0.0263,0.0263,0.0263,0,-0.0396,-0.0427,-0.0454,-0.051,-0.0537,-0.0557,-0.0559,-0.0569,-0.0528,-0.0516,-0.0453,-0.0356,-0.0254,-0.0111,0.0007,0.012,0.0206,0.0236,0.0237,0.0233,0.0222,0.0229,0.0225,0.0264,0.0264,0.0264,0.0264,0,-0.0419,-0.0453,-0.0501,-0.0544,-0.0589,-0.0611,-0.0611,-0.0585,-0.0578,-0.0522,-0.0502,-0.0375,-0.03,-0.0137,-0.0026,0.0083,0.0112,0.0145,0.0151,0.0152,0.01,0.0069,0.0075,0,0,0,0,0,-0.0425,-0.0464,-0.0516,-0.0566,-0.0613,-0.0629,-0.0644,-0.0631,-0.0601,-0.0564,-0.0528,-0.0424,-0.0247,-0.0171,-0.0064,-0.0029,0.0124,0.0099,0.0163,0.0266,0.0265,0.0221,0,0,0,0,0,0,-0.0431,-0.0486,-0.0516,-0.0569,-0.0603,-0.0639,-0.0648,-0.0629,-0.0598,-0.0559,-0.0466,-0.0406,-0.0237,-0.0309,-0.0064,-0.0031,0.0022,0.0185,0.0187,0.0266,0.0265,0.0265,0.022,0,0,0,0,0]}]]